Flag for Switzerland Weather past 2 weeks in Ostermundigen, Bern, Switzerland

Now
48 °F

Scattered clouds.


Feels Like: 48 °F
Forecast: 29 / 54 °F
Wind: 2 mph from North

Location: Bern / Belp

Current Time: Oct 23, 2014 at 11:40:14 AM

Latest Report: Oct 23, 2014 at 11:20 AM


Visibility: N/A

Pressure: 30.30 "Hg

Humidity: 76%

Dew point: 41 °F

Location of OstermundigenLocation

Historic Weather in Ostermundigen — Graph

°F

Ostermundigen temperature yesterday

Maximum temperature yesterday: 48 °F (at 12:20 AM)
Minimum temperature yesterday: 39 °F (at 8:50 AM)
Average temperature yesterday: 44 °F

Past Weeks' High & Low Weather Summary

 TemperatureHumidityPressure
High73 °F (Oct 9, 3:20 PM)100% (Oct 8, 10:20 AM)30.30 "Hg (Oct 8, 10:20 AM)
Low39 °F (Oct 22, 8:50 AM)50% (Oct 9, 3:20 PM)29.77 "Hg (Oct 13, 4:50 AM)
Average56 °F87%30.00 "Hg
* Reported Oct 8 10:20 AM — Oct 23 10:20 AM, Ostermundigen, Weather by CustomWeather, © 2014

Note: Actual official high and low records may vary slightly from our data, if they occured in-between our weather recording intervals... More about our weather records

Advertising

Ostermundigen weather history for previous 24 hours

 ConditionsComfort  
Time TempWeatherWind HumidityBarometerVisibility
10:20 AM
Oct 23
45 °FSunny.3 mph87%30.30 "Hg10 mi
9:50 AM43 °FPassing clouds.3 mph93%30.30 "HgN/A
9:20 AM41 °FPassing clouds.2 mph93%30.30 "HgN/A
8:50 AM41 °FPassing clouds.3 mph93%30.27 "HgN/A
8:20 AM41 °FPassing clouds.1 mph100%30.27 "HgN/A
7:50 AM41 °FPassing clouds.2 mph93%30.27 "HgN/A
7:20 AM41 °FPassing clouds.1 mph100%30.27 "HgN/A
6:50 AM41 °FPassing clouds.2 mph93%30.27 "HgN/A
6:20 AM41 °FPassing clouds.3 mph93%30.27 "HgN/A
5:50 AM43 °FLight rain. Passing clouds.2 mph87%30.30 "HgN/A
5:20 AM43 °FLight rain. Partly cloudy.3 mph87%30.30 "Hg5 mi
4:50 AM43 °FMostly cloudy.2 mph81%30.27 "HgN/A
4:20 AM43 °FPassing clouds.3 mph81%30.30 "HgN/A
3:50 AM43 °FPassing clouds.2 mph81%30.30 "HgN/A
3:20 AM43 °FPassing clouds.6 mph81%30.30 "HgN/A
2:50 AM43 °FMostly cloudy.10 mph81%30.30 "HgN/A
2:20 AM43 °FPartly cloudy.9 mph81%30.30 "HgN/A
1:50 AM43 °FPartly cloudy.6 mph81%30.30 "HgN/A
1:20 AM43 °FPassing clouds.7 mph81%30.30 "HgN/A
12:50 AM43 °FPassing clouds.7 mph81%30.27 "HgN/A
12:20 AM43 °FPassing clouds.7 mph81%30.30 "HgN/A
11:50 PM
Oct 22
43 °FPartly cloudy.6 mph81%30.27 "HgN/A
11:20 PM43 °FPassing clouds.10 mph81%30.27 "HgN/A
10:50 PM43 °FPartly cloudy.8 mph81%30.27 "HgN/A
10:20 PM41 °FPassing clouds.6 mph93%30.27 "HgN/A
9:50 PM41 °FPartly cloudy.2 mph87%30.27 "HgN/A
9:20 PM41 °FLight rain. Passing clouds.6 mph87%30.27 "HgN/A
8:50 PM43 °FPassing clouds.12 mph81%30.27 "HgN/A
8:20 PM43 °FPartly cloudy.8 mph76%30.27 "HgN/A
7:50 PM41 °FPartly cloudy.10 mph81%30.27 "HgN/A
7:20 PM43 °FLight rain. Partly sunny.15 mph76%30.27 "Hg4 mi
6:50 PM43 °FBroken clouds.8 mph71%30.21 "HgN/A
6:20 PM45 °FBroken clouds.8 mph66%30.21 "HgN/A
5:50 PM45 °FBroken clouds.5 mph71%30.21 "HgN/A
5:20 PM45 °FPartly sunny.9 mph66%30.21 "HgN/A
4:20 PM43 °FBroken clouds.7 mph76%30.24 "HgN/A
3:50 PM45 °FPartly sunny.8 mph61%30.21 "HgN/A
3:20 PM45 °FPartly sunny.12 mph61%30.21 "HgN/A
2:50 PM45 °FPartly sunny.9 mph61%30.24 "HgN/A
2:20 PM46 °FPartly sunny.14 mph57%30.24 "HgN/A
1:50 PM45 °FPartly sunny.13 mph61%30.24 "HgN/A
1:20 PM45 °FPartly sunny.13 mph66%30.24 "HgN/A
12:50 PM45 °FPartly sunny.10 mph66%30.24 "HgN/A
12:20 PM43 °FBroken clouds.13 mph66%30.24 "HgN/A
11:50 AM43 °FBroken clouds.15 mph71%30.21 "HgN/A
11:20 AM41 °FBroken clouds.16 mph76%30.21 "HgN/A
Weather by CustomWeather, © 2014

See weather overviewHow to use our weather pages